Weather History for College Station, TX

Change the Weather History Date:

Thursday, November 13, 2014

  Actual Average Record
Temperature  
Mean Temperature 39 °F 62 °F  
Max Temperature 47 °F 72 °F 90 °F (1921)
Min Temperature 31 °F 52 °F 25 °F (1911)
Degree Days  
Heating Degree Days 26 5  
Month to date heating degree days 106 53  
Since 1 July heating degree days 109 90  
Cooling Degree Days 0 2  
Month to date cooling degree days 9 39  
Year to date cooling degree days 2922 3051  
Moisture  
Dew Point 16 °F    
Average Humidity 41    
Maximum Humidity 54    
Minimum Humidity 28    
Precipitation  
Precipitation 0.00 in 0.12 in 1.27 in (1976)
Month to date precipitation 3.01 1.49  
Year to date precipitation 34.16 35.10  
Sea Level Pressure  
Sea Level Pressure 30.47 in    
Wind  
Wind Speed 15 mph (North)    
Max Wind Speed 25 mph    
Max Gust Speed 31 mph    
Visibility 10 miles    
Events      
T = Trace of Precipitation, MM = Missing Value Source: NWS Daily Summary

Daily Weather History Graph

Daily Weather History Graph

Search for Another Location

Airport:

Trip Planner

Search our weather history database for the weather conditions in past years. The results will help you decide how hot, cold, wet, or windy it might be!

Date:

Astronomy

Nov. 13, 2014 Rise Set
Actual Time 6:49 AM CST 5:29 PM CST
Civil Twilight 6:24 AM CST 5:54 PM CST
Nautical Twilight 5:55 AM CST 6:23 PM CST
Astronomical Twilight 5:26 AM CST 6:52 PM CST
Moon 11:39 PM CST (11/13) 12:16 PM CST (11/13)
Length of Visible Light 11h 30m
Length of Day
10h 39m
Waning Gibbous, 58% of the Moon is Illuminated
Nov 13
Waning Gibbous
Nov 14
Last Quarter
Nov 22
New
Nov 29
First Quarter
Dec 6
Full

Hourly Weather History & Observations

Time (CST) Temp. Windchill Dew Point Humidity Pressure Visibility Wind Dir Wind Speed Gust Speed Precip Events Conditions
12:53 AM 37.0 °F 26.7 °F 19.0 °F 48% 30.42 in 10.0 mi North 19.6 mph 31.1 mph N/A   Overcast
1:53 AM 37.0 °F 27.4 °F 19.0 °F 48% 30.43 in 10.0 mi North 17.3 mph - N/A   Overcast
2:53 AM 36.0 °F 25.6 °F 18.0 °F 48% 30.43 in 10.0 mi North 18.4 mph 31.1 mph N/A   Overcast
3:53 AM 36.0 °F 25.0 °F 17.1 °F 46% 30.45 in 10.0 mi North 20.7 mph 27.6 mph N/A   Overcast
4:53 AM 36.0 °F 25.3 °F 17.1 °F 46% 30.45 in 10.0 mi North 19.6 mph 25.3 mph N/A   Overcast
5:53 AM 35.6 °F 25.2 °F 17.6 °F 48% 30.47 in 10.0 mi North 18.4 mph 25.3 mph N/A   Overcast
6:53 AM 36.0 °F 25.3 °F 17.1 °F 46% 30.49 in 10.0 mi North 19.6 mph - N/A   Overcast
7:53 AM 36.0 °F 25.3 °F 16.0 °F 44% 30.51 in 10.0 mi North 19.6 mph 26.5 mph N/A   Overcast
8:53 AM 37.0 °F 27.4 °F 15.1 °F 41% 30.53 in 10.0 mi North 17.3 mph 26.5 mph N/A   Overcast
9:53 AM 37.9 °F 29.6 °F 15.1 °F 39% 30.53 in 10.0 mi North 13.8 mph 21.9 mph N/A   Overcast
10:53 AM 37.9 °F 28.2 °F 14.0 °F 38% 30.52 in 10.0 mi North 18.4 mph 27.6 mph N/A   Overcast
11:53 AM 39.9 °F 31.1 °F 14.0 °F 35% 30.51 in 10.0 mi North 17.3 mph - N/A   Overcast
12:53 PM 44.1 °F 36.5 °F 15.1 °F 31% 30.47 in 10.0 mi North 17.3 mph - N/A   Partly Cloudy
1:53 PM 46.0 °F 39.9 °F 15.1 °F 29% 30.44 in 10.0 mi NNW 13.8 mph - N/A   Clear
2:53 PM 44.1 °F 36.8 °F 14.0 °F 30% 30.44 in 10.0 mi North 16.1 mph 24.2 mph N/A   Overcast
3:53 PM 41.0 °F 32.2 °F 12.9 °F 32% 30.44 in 10.0 mi North 18.4 mph - N/A   Mostly Cloudy
4:53 PM 39.0 °F 29.9 °F 12.9 °F 34% 30.44 in 10.0 mi North 17.3 mph 21.9 mph N/A   Overcast
5:53 PM 37.9 °F 30.0 °F 12.9 °F 36% 30.46 in 10.0 mi NNW 12.7 mph - N/A   Overcast
6:53 PM 37.0 °F 28.5 °F 12.9 °F 37% 30.48 in 10.0 mi North 13.8 mph - N/A   Mostly Cloudy
7:53 PM 35.1 °F 29.3 °F 15.1 °F 44% 30.47 in 10.0 mi North 6.9 mph - N/A   Partly Cloudy
8:53 PM 34.0 °F 28.0 °F 15.1 °F 46% 30.48 in 10.0 mi North 6.9 mph - N/A   Clear
9:53 PM 33.1 °F 30.0 °F 17.1 °F 52% 30.49 in 10.0 mi NNW 3.5 mph - N/A   Clear
10:53 PM 32.0 °F 26.4 °F 17.1 °F 54% 30.48 in 10.0 mi NNW 5.8 mph - N/A   Clear
11:53 PM 30.9 °F 25.2 °F 18.0 °F 59% 30.48 in 10.0 mi NNW 5.8 mph - N/A   Clear